Kingston, Jamaica

5:38 PM EST on August 27, 2016 (GMT -0500)
Norman Manley International

Weather History for MKJP - November, 2011

Change the Weather History Date:

Thursday, November 17, 2011

  Actual Average Record
Temperature  
Mean Temperature 83 °F -  
Max Temperature 89 °F 84 °F 91 °F (2000)
Min Temperature 77 °F 75 °F 71 °F (2010)
Cooling Degree Days 18    
Growing Degree Days 33 (Base 50)    
Moisture  
Dew Point 72 °F    
Average Humidity 70    
Maximum Humidity 89    
Minimum Humidity 51    
Precipitation  
Precipitation 0.00 in - - ()
Sea Level Pressure  
Sea Level Pressure 29.88 in    
Wind  
Wind Speed 4 mph ()    
Max Wind Speed 9 mph    
Max Gust Speed -    
Visibility 8.1 miles    
Events Thunderstorm    
Averages and records for this station are not official NWS values.
T = Trace of Precipitation, MM = Missing Value Source: Averaged Metar Reports

Daily Weather History Graph

Daily Weather History Graph

Search for Another Location

Airport or City:

Trip Planner

Search our weather history database for the weather conditions in past years. The results will help you decide how hot, cold, wet, or windy it might be!

Date:

Astronomy

Nov. 17, 2011 Rise Set
Actual Time 6:13 AM EST 5:30 PM EST
Civil Twilight 5:50 AM EST 5:53 PM EST
Nautical Twilight 5:24 AM EST 6:19 PM EST
Astronomical Twilight 4:58 AM EST 6:45 PM EST
Moon 11:29 PM EST (11/17) 11:35 AM EST (11/17)
Length of Visible Light 12h 02m
Length of Day
11h 16m
Waning Gibbous, 60% of the Moon is Illuminated
Nov 17
Waning Gibbous
Nov 18
Last Quarter
Nov 25
New
Dec 2
First Quarter
Dec 10
Full

Hourly Weather History & Observations

Time (EST) Temp. Heat Index Dew Point Humidity Pressure Visibility Wind Dir Wind Speed Gust Speed Precip Events Conditions
12:00 AM 78.8 °F - 71.6 °F 78% 29.89 in - NNW 4.6 mph - N/A   Partly Cloudy
1:00 AM 79 °F - 75 °F 84% 29.90 in 12 mi Calm Calm - -   Partly Cloudy
1:00 AM 78.8 °F - 75.2 °F 89% 29.89 in - NW 5.8 mph - N/A   Scattered Clouds
2:00 AM 78.8 °F - 69.8 °F 74% 29.89 in - NNW 6.9 mph - N/A   Scattered Clouds
3:00 AM 80.6 °F 83.2 °F 68.0 °F 65% 29.86 in - NW 4.6 mph - N/A   Scattered Clouds
4:00 AM 80 °F - 69 °F 62% 29.88 in 12 mi Calm Calm - -   Mostly Cloudy
4:00 AM 78.8 °F - 69.8 °F 74% 29.86 in - NNW 6.9 mph - N/A   Scattered Clouds
5:00 AM 78.8 °F - 69.8 °F 74% 29.86 in - North 9.2 mph - N/A   Partly Cloudy
6:00 AM 80.6 °F 83.9 °F 69.8 °F 70% 29.89 in - North 5.8 mph - N/A   Scattered Clouds
7:00 AM 78 °F - 73 °F 80% 29.92 in 12 mi Calm Calm - -   Haze
7:00 AM 77.0 °F - 73.4 °F 89% 29.92 in - North 4.6 mph - N/A   Partly Cloudy
8:00 AM 80.6 °F 84.6 °F 71.6 °F 74% 29.92 in - North 5.8 mph - N/A   Partly Cloudy
9:00 AM 84.2 °F 89.6 °F 71.6 °F 66% 29.95 in - NE 3.5 mph - N/A   Partly Cloudy
10:00 AM 87 °F - 71 °F 51% 29.95 in 4 mi SSE 2.3 mph - -   Haze
10:00 AM 87.8 °F 93.8 °F 71.6 °F 58% 29.95 in - SSE 2.3 mph - N/A   Partly Cloudy
11:00 AM 86.0 °F 90.4 °F 69.8 °F 58% 29.92 in - South 5.8 mph - N/A   Partly Cloudy
12:00 PM 86.0 °F 90.4 °F 69.8 °F 58% 29.89 in - SSW 5.8 mph - N/A   Partly Cloudy
1:00 PM 87 °F - 72 °F 54% 29.88 in 4 mi SSW 6.9 mph - -   Haze
1:00 PM 87.8 °F 95.6 °F 73.4 °F 62% 29.86 in - SSW 6.9 mph - N/A   Partly Cloudy
2:00 PM 86.0 °F 93.4 °F 73.4 °F 66% 29.83 in - SSE 9.2 mph - N/A   Partly Cloudy
3:00 PM 86.0 °F 95.1 °F 75.2 °F 70% 29.83 in - SSW 4.6 mph - N/A   Partly Cloudy
4:00 PM 87 °F - 74 °F 58% 29.83 in 4 mi SW 5.8 mph - -   Haze
4:00 PM 87.8 °F 97.6 °F 75.2 °F 66% 29.83 in - SW 5.8 mph - N/A   Partly Cloudy
5:00 PM 84.2 °F 90.9 °F 73.4 °F 70% 29.83 in - SW 4.6 mph - N/A   Partly Cloudy
6:00 PM 84.2 °F 90.9 °F 73.4 °F 70% 29.83 in - WSW 9.2 mph - N/A   Partly Cloudy
7:00 PM 83 °F - 73 °F 64% 29.86 in 15 mi West 6.9 mph - -   Scattered Clouds
7:00 PM - - - N/A% - 6.2 mi North 9.2 mph - N/A Thunderstorm Partly Cloudy
8:00 PM 82.4 °F 88.2 °F 73.4 °F 74% 29.86 in - Calm Calm - N/A   Partly Cloudy
9:00 PM 82.4 °F 89.5 °F 75.2 °F 79% 29.89 in - NE 1.2 mph - N/A   Partly Cloudy
10:00 PM 82 °F - 74 °F 72% 29.90 in 4 mi SE 2.3 mph - -   Haze
10:00 PM 82.4 °F 89.5 °F 75.2 °F 79% 29.86 in - NW 8.1 mph - N/A   Partly Cloudy
11:00 PM 82.4 °F 88.2 °F 73.4 °F 74% 29.89 in - Calm Calm - N/A   Partly Cloudy